FW6403 Weather Reports


time (UTC)temp
F
wind
direction
speed
knots
gust
knots
rain 1hr
in
rain 24hr
in
rain mn
in
humidity
%
barometer
mb
20260507180101 71 0 0.0 2.6 0.00 0.00 0.00 52 1012.3
20260507174556 72 0 0.0 0.9 0.00 0.00 0.00 50 1012.3
20260507173059 72 97 0.0 1.7 0.00 0.00 0.00 50 1012.1
20260507171559 73 313 0.0 4.3 0.00 0.00 0.00 50 1012.0
20260507164626 74 0 0.9 2.6 0.00 0.00 0.00 47 1011.8
20260507163101 75 360 0.0 2.6 0.00 0.00 0.00 48 1011.7
20260507161606 75 360 0.0 4.3 0.00 0.00 0.00 47 1011.8
20260507160057 75 360 0.0 3.5 0.00 0.00 0.00 47 1011.9
20260507154556 76 360 0.9 2.6 0.00 0.00 0.00 47 1012.0
20260507153057 76 360 0.0 1.7 0.00 0.00 0.00 46 1012.0
20260507151556 76 284 0.0 2.6 0.00 0.00 0.00 44 1012.0
20260507150058 76 0 0.0 5.2 0.00 0.00 0.00 47 1012.0
20260507144600 75 360 0.9 3.5 0.00 0.00 0.00 47 1012.2
20260507143108 75 360 0.0 4.3 0.00 0.00 0.00 44 1012.3
20260507141618 76 360 1.7 5.2 0.00 0.00 0.00 45 1012.1
20260507140058 76 273 0.9 5.2 0.00 0.00 0.00 44 1012.2
20260507134617 75 0 0.0 3.5 0.00 0.00 0.00 48 1012.3
20260507133110 74 0 0.9 3.5 0.00 0.00 0.00 49 1012.4
20260507131612 74 34 0.9 5.2 0.00 0.00 0.00 48 1012.5
20260507130058 74 360 0.0 2.6 0.00 0.00 0.00 50 1012.5
20260507124558 74 360 0.9 3.5 0.00 0.00 0.00 46 1012.6
20260507123112 75 360 0.9 3.5 0.00 0.00 0.00 48 1012.4
20260507121557 74 360 0.9 3.5 0.00 0.00 0.00 48 1012.7
20260507120058 74 360 0.0 4.3 0.00 0.00 0.00 50 1012.9
20260507114600 74 360 0.0 2.6 0.00 0.00 0.00 48 1012.9
20260507113057 74 360 1.7 4.3 0.00 0.00 0.00 48 1013.0
20260507111559 75 360 0.0 4.3 0.00 0.00 0.00 49 1013.1
20260507110057 74 360 0.9 4.3 0.00 0.00 0.00 45 1013.3
20260507104601 73 360 0.9 3.5 0.00 0.00 0.00 52 1013.3
20260507103100 73 360 0.9 4.3 0.00 0.00 0.00 51 1013.5
20260507101557 73 0 0.0 2.6 0.00 0.00 0.00 54 1013.6
20260507100110 73 360 0.9 4.3 0.00 0.00 0.00 53 1013.7
20260507094557 72 360 0.9 7.0 0.00 0.00 0.00 59 1013.7
20260507093059 71 360 0.9 3.5 0.00 0.00 0.00 56 1013.8
20260507091601 71 360 0.0 4.3 0.00 0.00 0.00 59 1013.8
20260507090103 71 360 0.9 3.5 0.00 0.00 0.00 58 1013.8
20260507084557 70 360 0.0 3.5 0.00 0.00 0.00 61 1013.7
20260507083058 69 360 0.0 4.3 0.00 0.00 0.00 62 1013.6
20260507081557 68 0 0.0 3.5 0.00 0.00 0.00 66 1013.6
20260507080117 67 360 0.0 3.5 0.00 0.00 0.00 66 1013.4
20260507074557 67 360 0.0 2.6 0.00 0.00 0.00 65 1013.6
20260507073057 66 0 0.0 2.6 0.00 0.00 0.00 67 1013.6
20260507071604 64 360 0.0 2.6 0.00 0.00 0.00 67 1013.4
20260507070104 63 360 0.9 2.6 0.00 0.00 0.00 67 1013.4
20260507064629 62 360 0.0 2.6 0.00 0.00 0.00 68 1013.3
20260507063112 61 0 0.0 1.7 0.00 0.00 0.00 70 1013.3
20260507061559 59 0 0.0 2.6 0.00 0.00 0.00 68 1013.2
20260507060115 57 0 0.0 1.7 0.00 0.00 0.00 70 1013.3
20260507054606 56 287 0.0 1.7 0.00 0.00 0.00 74 1013.1
20260507053107 54 0 0.0 0.0 0.00 0.00 0.00 77 1012.9
20260507051606 52 0 0.0 0.0 0.00 0.00 0.00 81 1012.7
20260507050055 51 0 0.0 0.0 0.00 0.00 0.00 82 1012.5
20260507044559 50 0 0.0 0.0 0.00 0.00 0.00 82 1012.2
20260507043059 50 0 0.0 0.0 0.00 0.00 0.00 82 1012.0
20260507041556 51 0 0.0 0.0 0.00 0.00 0.00 81 1011.9
20260507040058 51 0 0.0 0.0 0.00 0.00 0.00 80 1011.8
20260507034555 52 0 0.0 0.0 0.00 0.00 0.00 79 1011.7
20260507033057 52 0 0.0 0.0 0.00 0.00 0.00 79 1011.6
20260507031555 52 0 0.0 0.0 0.00 0.00 0.00 78 1011.5
20260507030056 52 0 0.0 0.0 0.00 0.00 0.00 79 1011.6
20260507024555 52 0 0.0 0.0 0.00 0.00 0.00 78 1011.5
20260507023055 52 0 0.0 0.0 0.00 0.00 0.00 79 1011.7
20260507021556 52 0 0.0 0.0 0.00 0.00 0.00 78 1011.7
20260507020118 53 0 0.0 0.0 0.00 0.00 0.00 79 1011.7
20260507014601 53 0 0.0 0.0 0.00 0.00 0.00 78 1011.7
20260507013057 53 0 0.0 1.7 0.00 0.00 0.00 78 1011.6
20260507011557 53 0 0.0 0.0 0.00 0.00 0.00 78 1011.6
20260507010110 53 0 0.0 0.0 0.00 0.00 0.00 77 1011.5
20260507004557 54 0 0.0 0.0 0.00 0.00 0.00 77 1011.3
20260507003054 54 0 0.0 0.0 0.00 0.00 0.00 76 1011.2
20260507001605 54 0 0.0 0.0 0.00 0.00 0.00 76 1011.2
20260507000059 54 360 0.0 0.9 0.00 0.00 0.00 76 1011.3
20260506234600 55 0 0.0 0.0 0.00 0.00 0.00 75 1011.1
20260506233100 55 0 0.0 0.0 0.00 0.00 0.00 74 1011.2
20260506231610 56 0 0.0 0.0 0.00 0.00 0.00 74 1011.1
20260506230126 56 0 0.0 0.0 0.00 0.00 0.00 72 1011.2
20260506224603 57 0 0.0 0.9 0.00 0.00 0.00 71 1011.2
20260506223103 57 0 0.0 0.0 0.00 0.00 0.00 70 1011.0
20260506221631 58 0 0.0 0.0 0.00 0.00 0.00 70 1011.1
20260506220124 58 0 0.0 2.6 0.00 0.00 0.00 70 1011.2
20260506214600 58 0 0.0 1.7 0.00 0.00 0.00 70 1011.3
20260506213110 58 0 0.0 1.7 0.00 0.00 0.00 70 1011.1
20260506211600 59 360 0.0 0.0 0.00 0.00 0.00 70 1011.2
20260506210106 59 0 0.0 0.0 0.00 0.00 0.00 68 1011.1
20260506204607 60 360 0.0 1.7 0.00 0.00 0.00 68 1011.1
20260506203058 61 0 0.0 1.7 0.00 0.00 0.00 66 1010.8
20260506201558 61 0 0.0 1.7 0.00 0.00 0.00 63 1010.8
20260506200057 63 0 0.0 2.6 0.00 0.00 0.00 62 1010.5
20260506194559 64 277 0.9 3.5 0.00 0.00 0.00 55 1010.1
20260506193104 64 0 0.9 7.0 0.00 0.00 0.00 54 1009.8
20260506191619 64 178 0.9 4.3 0.00 0.00 0.00 55 1009.4
20260506190058 65 0 0.0 1.7 0.00 0.00 0.00 57 1009.2
20260506184627 66 0 0.0 1.7 0.00 0.00 0.00 54 1009.0
20260506183104 67 175 0.0 1.7 0.00 0.00 0.00 54 1008.8
20260506181600 68 0 0.0 2.6 0.00 0.00 0.00 52 1008.7